Home > Weather > Macapá > Past weeks

Flag for Brazil Weather for the Past 2 Weeks in Macapá, Amapá, Brazil

Now
81 °F

Clear.


Feels Like: 87 °F
Forecast: 78 / 86 °F
Wind: 9 mph from Northeast

Location: Macapa Airport

Current Time: Feb 8, 2016 at 1:48:44 AM

Latest Report: Feb 8, 2016 at 1:00 AM


Visibility: 10 mi

Pressure: 29.89 "Hg

Humidity: 89%

Dew point: 77 °F

Location of MacapáLocation

Historic Weather in Macapá — Graph

°F

Macapá Temperature Yesterday

Maximum temperature yesterday: 93 °F (at 1:00 PM)
Minimum temperature yesterday: 79 °F (at 12:00 AM)
Average temperature yesterday: 84 °F

High & Low Weather Summary for the Past Weeks

 TemperatureHumidityPressure
High93 °F (Jan 24, 2:00 PM)100% (Jan 26, 9:00 AM)29.98 "Hg (Jan 26, 9:00 AM)
Low75 °F (Jan 28, 6:00 AM)53% (Jan 26, 1:00 PM)29.77 "Hg (Feb 3, 5:00 PM)
Average81 °F87%29.89 "Hg
* Reported Midnight between Jan 23 and Jan 24 — Midnight between Feb 7 and Feb 8, Macapá, Weather by CustomWeather, © 2016

Note: Actual official high and low records may vary slightly from our data, if they occured in-between our weather recording intervals... More about our weather records

Advertising

Macapá Weather History for the Previous 24 Hours

 ConditionsComfort  
Time TempWeatherWind HumidityBarometerVisibility
12:00 AM
Mon, Feb 8
82 °FPassing clouds.7 mph84%29.92 "HgN/A
11:00 PM
Sun, Feb 7
82 °FPartly cloudy.7 mph84%29.92 "HgN/A
10:00 PM82 °FPassing clouds.8 mph84%29.89 "HgN/A
9:00 PM82 °FPassing clouds.5 mph84%29.89 "HgN/A
8:00 PM84 °FPassing clouds.8 mph79%29.83 "HgN/A
7:00 PM84 °FClear.14 mph74%29.83 "Hg10 mi
6:00 PM88 °FScattered clouds.13 mph70%29.80 "HgN/A
5:00 PM91 °FScattered clouds.14 mph63%29.80 "HgN/A
4:00 PM93 °FScattered clouds.16 mph56%29.80 "HgN/A
3:00 PM93 °FScattered clouds.15 mph56%29.83 "HgN/A
2:00 PM93 °FScattered clouds.14 mph59%29.86 "HgN/A
1:00 PM93 °FScattered clouds.15 mph59%29.89 "HgN/A
12:00 PM91 °FScattered clouds.12 mph63%29.92 "HgN/A
11:00 AM91 °FPartly sunny.12 mph63%29.95 "HgN/A
10:00 AM86 °FPartly sunny.6 mph75%29.95 "HgN/A
9:00 AM82 °FBroken clouds.9 mph84%29.95 "HgN/A
8:00 AM79 °FLow clouds.5 mph100%29.92 "Hg4 mi
7:00 AM79 °FFog.5 mph100%29.89 "Hg3 mi
6:00 AM79 °FPassing clouds.3 mph100%29.86 "HgN/A
5:00 AM79 °FPassing clouds.6 mph100%29.86 "HgN/A
4:00 AM79 °FPassing clouds.6 mph100%29.86 "HgN/A
3:00 AM79 °FPassing clouds.5 mph100%29.86 "HgN/A
2:00 AM79 °FPassing clouds.6 mph100%29.89 "HgN/A
1:00 AM79 °FPassing clouds.8 mph100%29.92 "HgN/A
Weather by CustomWeather, © 2016

See weather overviewHow to use our weather pages